Wind_Speed
39 39 39 37 35 33 32 32 32 30 29 28 27 25 22 19 17 18 21 25 29 33 35 38 40 42 44 45 46 47 47 47 47 48 47 46 45 43 42 41 41 40 39 38 37 36 35 33 32 31 31 31 30 28 27 27 27 27 27 26 25 24 24 24 24 25 27 28 27 26 26 26 27 28 27 27 29 31 31 32 32 33 33 33 33
39 40 41 40 39 37 35 35 36 37 35 33 32 32 30 27 23 21 20 21 24 28 33 37 41 43 45 46 47 48 48 49 49 49 49 48 47 46 44 43 43 41 40 39 37 36 35 35 34 33 33 33 32 30 28 27 27 28 28 27 26 26 26 26 26 26 27 28 28 26 26 26 28 28 27 27 28 30 31 33 33 34 34 33 33
41 43 43 43 42 41 39 37 37 39 39 37 35 35 35 34 33 31 29 26 25 26 28 32 38 42 45 47 48 49 50 51 52 52 52 51 50 49 47 46 44 43 42 40 38 37 36 36 35 35 35 35 34 32 30 29 28 29 29 28 28 28 27 27 27 27 27 28 28 27 27 27 28 29 29 29 30 31 32 33 34 35 34 34 33
47 48 49 49 49 48 47 44 42 41 41 40 39 38 38 38 38 38 37 35 33 31 30 31 34 38 43 47 49 51 52 53 54 55 55 55 54 52 50 48 47 45 43 41 40 39 38 37 37 37 37 37 36 35 33 32 31 31 31 30 30 30 29 28 29 29 29 29 29 29 28 28 29 30 31 32 32 33 33 33 34 34 34 34 33
53 54 54 55 54 53 53 52 49 46 46 45 45 44 42 41 41 41 42 42 40 38 36 36 36 37 40 43 47 50 52 54 55 57 58 58 57 55 53 51 50 48 45 44 42 41 40 39 38 39 39 39 39 38 37 35 34 33 33 33 32 32 32 31 31 31 31 31 31 31 30 30 30 31 32 33 34 35 34 34 33 33 33 33 33
54 55 56 57 56 54 53 52 50 48 47 48 49 50 50 49 49 48 48 47 47 45 44 43 43 43 43 43 44 46 49 53 56 58 59 60 61 60 58 55 53 51 48 46 44 43 42 41 41 41 42 42 42 41 40 39 38 37 36 35 35 35 35 34 33 33 33 33 33 33 33 32 32 33 34 35 35 35 35 34 34 34 33 32 32
52 53 55 55 55 53 51 48 47 46 45 45 47 49 51 53 55 55 55 54 53 53 52 51 50 50 51 51 50 49 49 50 54 58 61 63 63 64 62 60 57 54 51 50 48 45 44 43 44 44 45 45 44 43 43 42 41 40 39 38 38 38 37 36 35 35 35 35 35 34 35 35 34 34 36 36 36 36 36 35 35 34 33 33 32
49 50 52 53 53 52 50 47 46 46 45 45 46 47 49 52 54 56 57 57 57 56 56 56 55 55 56 57 58 57 56 54 54 57 61 64 66 66 66 64 61 58 56 53 51 50 48 47 47 47 46 46 46 46 46 45 45 43 42 42 41 41 40 39 38 37 37 37 36 36 36 37 36 36 36 36 36 37 37 36 35 34 33 33 33
47 49 51 52 51 50 49 48 47 47 46 46 46 47 49 51 52 53 54 55 55 56 56 57 58 58 59 60 61 61 61 60 59 58 60 64 67 68 68 67 65 62 61 58 56 54 53 51 49 48 48 48 49 49 49 49 48 46 45 45 44 44 43 42 41 40 39 38 38 37 37 38 38 38 37 37 38 38 38 37 36 35 34 34 34
45 48 50 51 50 49 48 47 48 48 47 47 46 47 48 49 50 50 50 51 52 53 55 56 57 59 60 62 63 64 63 62 62 63 62 63 67 69 69 69 67 66 64 63 62 59 57 55 53 51 51 50 50 50 51 51 50 49 48 48 47 47 47 46 45 43 41 40 40 40 39 39 39 39 39 39 39 39 39 38 37 36 36 35 36
43 44 47 48 48 49 49 49 49 49 50 50 49 48 48 49 50 50 50 50 51 52 54 55 57 58 59 60 62 64 64 61 63 66 65 62 64 68 69 69 68 68 67 67 66 64 61 59 56 55 54 53 52 52 52 52 52 52 51 51 51 51 50 50 48 47 44 43 42 42 40 39 40 41 40 40 39 39 39 38 38 38 37 37 38
41 42 43 45 47 50 52 54 54 53 53 53 52 51 51 51 52 53 54 55 56 55 55 55 57 59 60 61 60 61 61 61 62 65 65 62 61 65 68 68 68 70 71 70 69 67 65 63 60 58 56 55 54 53 53 53 53 53 53 54 54 53 53 53 51 49 47 46 44 43 42 41 41 42 42 41 40 40 40 39 39 39 39 40 40
46 45 44 44 44 46 49 53 55 55 54 53 53 53 53 54 56 57 58 59 60 59 58 57 57 58 60 62 62 61 60 60 61 63 64 62 60 61 64 67 68 70 72 73 71 69 68 66 64 61 59 58 57 56 56 55 54 54 55 55 56 55 56 55 53 52 50 48 45 43 42 42 42 42 43 43 42 41 40 40 40 41 41 41 41
54 53 52 49 47 46 45 47 49 50 52 52 53 53 53 55 56 57 58 58 58 59 58 57 58 58 59 60 62 62 61 60 60 61 63 63 62 60 60 63 67 71 73 73 73 71 70 68 66 64 62 61 60 59 58 57 56 55 55 57 57 57 57 57 56 54 52 49 46 44 43 43 42 43 44 44 43 42 41 41 41 42 42 42 43
58 58 57 56 54 52 50 48 46 46 48 49 51 53 53 53 52 52 54 55 55 56 55 55 56 57 59 59 60 61 61 60 59 59 61 63 63 62 61 62 65 69 73 74 75 74 72 70 68 66 64 63 62 60 59 57 56 55 56 58 58 58 59 59 57 55 53 50 47 45 44 44 43 43 44 44 44 43 42 42 43 43 43 43 44
59 58 57 56 55 55 55 54 50 48 47 47 48 50 51 51 50 50 50 51 53 54 53 53 53 54 57 59 60 61 61 60 58 57 58 61 62 62 62 62 63 65 69 73 76 76 74 71 69 67 66 65 63 61 59 57 57 57 59 60 61 61 61 60 58 56 54 50 47 45 45 44 44 43 43 44 44 43 43 44 44 45 45 45 46
55 57 57 55 54 53 54 55 55 53 51 50 50 50 49 50 50 51 51 50 51 52 54 54 53 53 55 57 59 61 61 61 60 58 57 59 61 62 62 61 62 62 65 68 72 74 74 72 70 68 67 66 64 63 61 60 60 60 61 63 64 63 62 60 58 56 53 49 47 45 45 45 44 43 43 44 44 43 43 45 46 46 46 47 47
50 52 54 54 53 51 50 51 52 53 53 53 53 53 52 50 49 50 52 52 52 52 54 55 55 54 54 56 58 60 61 62 64 63 61 60 61 62 62 62 61 61 61 63 65 68 69 69 68 67 66 66 65 65 64 63 63 64 64 65 64 63 62 61 59 55 51 47 46 46 45 45 44 44 44 44 44 44 45 47 48 48 48 48 49
48 49 50 51 51 50 49 48 48 49 50 51 52 53 54 52 50 49 50 52 53 53 53 53 54 54 54 54 56 58 61 62 64 65 65 64 64 64 64 64 63 62 62 62 63 64 64 65 64 64 65 66 66 67 67 66 66 65 65 64 63 63 62 61 58 54 49 47 47 47 46 45 44 43 43 43 44 46 47 49 50 50 49 50 50
51 51 50 50 50 49 49 48 47 47 47 48 49 50 52 54 53 51 50 50 52 53 53 52 52 52 52 53 53 55 59 61 63 66 67 68 68 67 67 67 66 65 65 65 64 64 63 63 64 65 66 67 67 67 66 66 65 64 63 62 62 62 61 59 58 54 50 47 48 47 46 44 43 41 42 43 44 47 49 50 51 51 51 50 49
57 56 55 53 52 52 51 51 50 49 47 47 48 48 48 51 53 52 51 50 50 52 52 51 51 51 51 51 52 52 55 58 61 64 68 70 69 68 69 69 68 68 67 66 65 64 62 62 63 64 66 66 65 64 64 64 64 62 61 61 60 60 60 59 57 53 49 46 47 46 45 43 41 40 41 42 44 47 49 50 51 51 50 49 48
63 63 61 60 58 57 56 55 55 53 50 49 49 49 48 48 50 52 52 51 51 52 51 51 51 51 50 50 50 50 51 54 57 59 63 66 65 65 67 69 69 68 68 67 66 65 64 62 62 62 63 63 62 62 63 63 62 60 59 59 60 60 60 59 57 52 48 46 46 46 44 42 40 39 40 42 44 46 48 49 49 49 49 48 47
68 67 66 65 64 63 62 61 59 58 56 53 52 52 50 49 49 50 51 52 53 53 53 51 50 50 50 50 49 48 48 50 52 54 56 59 60 61 64 65 66 66 66 67 67 66 64 62 61 61 61 61 61 61 62 61 59 56 56 58 59 59 59 58 55 51 47 45 46 46 44 41 40 39 40 42 44 45 46 47 47 47 46 46 46
71 71 70 69 68 67 67 66 64 63 61 59 57 55 53 52 51 50 50 52 53 54 54 53 51 50 49 49 50 48 46 46 48 50 52 54 56 58 60 62 64 65 65 65 65 64 63 62 61 61 60 60 60 59 59 59 56 54 55 56 56 57 58 57 52 47 44 45 46 46 43 41 40 38 39 41 43 44 45 45 44 44 44 44 44
74 74 74 73 72 70 70 70 69 68 66 64 63 60 57 55 54 53 51 51 53 55 55 53 51 50 49 49 49 49 46 44 44 45 47 50 52 55 58 61 62 63 63 63 63 63 62 61 61 61 60 58 56 55 56 57 55 53 53 54 55 57 57 53 48 44 45 46 46 45 43 42 39 38 38 39 41 42 43 42 42 42 42 42 41
78 78 78 77 76 75 74 73 72 72 70 69 67 65 62 59 57 56 54 53 53 54 54 54 52 50 50 49 48 49 48 46 43 41 42 46 49 51 55 59 61 60 61 61 61 61 60 60 59 58 57 57 55 54 55 56 55 54 53 54 56 57 55 49 45 44 46 47 46 44 43 41 38 36 36 38 39 40 41 40 40 41 41 40 39
81 81 81 81 80 79 78 77 75 74 73 71 70 69 67 65 62 59 56 55 55 54 54 54 53 51 50 49 48 49 49 47 43 40 39 41 44 47 52 57 59 59 59 59 59 59 59 59 58 56 55 55 55 54 55 55 54 54 54 54 56 57 52 46 45 46 48 47 46 44 42 40 37 35 36 37 38 39 39 39 39 39 39 38 38
84 84 83 83 83 82 81 80 78 76 74 72 71 70 68 67 66 63 58 56 56 55 55 55 53 51 49 48 48 49 50 49 46 42 37 36 38 41 47 53 55 56 56 56 55 56 55 54 53 53 54 55 54 54 55 56 56 55 56 56 57 55 50 47 48 50 50 48 46 44 41 38 36 35 35 36 37 37 37 37 38 38 38 37 37
86 86 85 85 85 84 83 82 81 79 77 74 72 70 69 68 68 66 61 57 56 56 56 55 54 52 50 49 48 49 51 51 49 45 41 37 35 36 40 47 50 51 51 51 50 50 49 48 48 50 52 54 55 56 56 57 57 57 58 58 57 52 49 48 50 50 48 47 45 42 39 37 35 35 35 35 35 36 36 37 37 37 37 37 37
87 86 85 84 84 83 83 83 82 81 80 77 74 71 68 67 67 67 64 59 57 56 56 55 54 52 51 50 49 48 49 50 50 48 45 41 38 36 36 40 45 47 47 47 46 46 47 47 48 48 49 52 54 54 55 57 58 59 60 59 54 49 47 48 49 49 47 45 43 40 37 35 34 33 33 34 34 35 35 36 37 36 36 37 38
85 83 82 82 81 80 79 79 79 78 77 76 74 71 68 65 64 64 64 61 59 57 56 55 54 52 51 51 49 47 46 48 49 48 46 42 40 38 36 37 39 41 42 42 43 44 46 47 47 47 48 51 52 52 54 56 58 59 59 56 52 49 48 49 48 46 45 42 40 37 34 33 33 33 32 33 34 34 35 35 36 36 36 37 38
85 83 81 80 79 77 75 74 73 73 72 71 69 68 67 64 62 61 61 61 60 57 55 55 54 52 50 50 50 48 46 46 47 47 45 42 40 38 38 38 38 37 36 36 37 40 44 46 47 46 46 49 51 52 53 55 56 57 56 53 51 49 48 46 45 43 41 39 37 35 33 33 33 33 33 33 34 34 34 34 35 35 36 37 39
84 82 80 78 76 74 72 69 67 67 67 66 64 64 63 63 61 59 58 59 58 57 55 54 53 52 49 48 49 49 47 44 44 44 44 43 40 38 37 39 41 41 39 35 33 34 37 41 43 44 45 47 49 50 50 50 51 53 53 52 50 48 45 44 43 41 39 38 36 35 34 34 34 33 33 33 34 34 34 34 34 35 36 37 39
78 76 74 72 70 67 65 62 61 61 61 61 60 60 59 59 59 58 56 55 54 54 54 53 52 51 49 47 48 48 47 44 42 42 43 42 41 39 37 37 40 43 43 40 37 35 34 35 37 38 40 42 43 44 44 46 48 50 51 50 49 47 45 43 42 40 38 37 36 35 35 35 34 34 34 34 33 33 33 33 34 35 37 38 38
67 65 63 60 59 58 57 56 56 56 56 55 56 56 56 55 56 55 55 53 52 51 51 52 51 49 48 47 46 46 46 44 42 41 41 41 40 40 39 38 40 44 46 45 42 41 39 38 37 37 37 37 37 38 39 41 44 47 47 47 47 46 45 42 40 38 37 37 37 36 36 35 34 34 34 33 33 32 32 33 35 36 37 38 38
53 52 51 49 49 49 49 50 50 50 50 50 51 52 52 52 52 51 51 52 51 49 49 50 50 49 47 46 45 44 44 44 43 41 40 40 40 41 41 41 41 43 46 46 44 43 43 42 41 39 37 35 35 35 35 37 39 42 44 46 46 45 42 39 37 37 38 38 37 37 36 35 34 34 33 32 31 31 32 34 35 37 37 37 37
43 43 42 42 42 43 44 44 45 45 46 46 47 48 49 49 48 47 47 49 49 48 47 48 48 48 46 44 43 43 43 43 43 42 41 41 41 42 43 42 42 42 44 45 44 44 44 43 40 36 34 34 34 34 35 35 38 41 44 45 44 42 39 37 37 38 39 38 37 36 35 34 33 32 31 29 30 31 33 35 36 36 37 37 37
37 38 38 39 39 40 40 41 42 42 42 42 43 43 44 44 43 42 43 45 47 47 46 46 46 45 44 42 41 42 41 42 43 43 42 42 43 43 44 44 44 44 44 45 45 44 42 40 36 33 32 31 32 34 35 36 38 41 43 43 42 39 38 37 38 38 39 38 36 35 34 33 31 29 28 29 30 32 34 35 36 36 36 36 37
34 34 34 34 35 36 36 37 37 36 36 36 36 37 37 37 37 37 39 41 43 44 44 44 42 41 40 39 40 41 41 41 42 43 42 41 41 42 43 43 44 44 44 45 45 43 40 37 34 31 30 29 30 33 35 37 38 40 41 41 39 38 37 37 37 38 38 37 35 33 32 31 29 27 28 29 31 32 33 34 35 35 36 36 37
32 31 29 29 29 30 30 30 30 30 29 29 29 29 29 30 31 32 34 36 38 39 39 39 38 37 37 37 38 38 38 38 39 40 41 40 39 40 42 43 43 44 45 45 44 41 38 34 31 30 29 28 29 33 35 37 38 39 38 37 36 35 35 36 37 38 37 34 32 31 29 28 27 27 28 30 31 32 33 33 34 35 36 37 38
29 27 25 24 25 25 25 24 24 25 24 24 23 23 23 23 25 26 28 29 30 31 32 32 33 33 33 34 35 35 35 35 35 36 38 38 36 38 41 42 42 43 44 44 43 40 37 32 29 28 28 28 30 33 36 37 38 37 36 35 35 35 36 37 37 36 33 31 29 28 27 26 26 27 28 29 30 31 32 33 34 35 36 37 38
27 25 23 22 22 23 22 21 21 21 21 20 20 19 18 18 19 20 21 22 23 24 25 27 28 28 30 31 31 30 31 31 31 33 34 34 34 36 38 40 40 40 40 40 40 38 34 29 25 25 27 29 31 33 35 36 36 35 35 34 34 35 35 35 34 32 30 28 27 26 25 25 26 27 28 29 30 31 32 33 34 35 36 37 39
24 23 21 21 21 21 21 20 19 17 17 17 16 15 15 14 14 14 16 17 18 20 21 22 23 25 26 26 25 26 27 27 28 30 31 32 33 34 36 38 38 37 36 36 36 33 27 23 22 23 26 28 29 31 32 32 33 32 32 33 33 33 33 32 31 29 27 25 25 25 25 25 26 27 28 29 30 31 32 33 34 35 36 38 39
21 20 19 19 19 19 19 19 17 16 15 14 13 12 11 10 9 10 11 12 13 15 16 18 19 21 21 21 21 23 25 26 27 28 29 30 31 32 34 35 35 34 33 31 29 25 22 21 22 24 27 29 30 30 30 31 30 30 31 31 31 31 31 29 28 26 24 24 24 24 24 25 26 27 28 29 30 31 32 33 34 35 36 38 40
19 18 17 17 17 17 17 16 15 14 13 11 10 9 8 7 6 6 7 8 10 12 13 15 17 18 18 19 21 23 24 25 25 27 28 29 29 30 31 31 31 30 28 24 21 20 20 22 25 27 29 31 31 31 31 30 30 30 30 30 30 30 29 27 25 24 23 24 24 24 25 26 26 27 28 29 30 31 32 33 34 36 37 39 40
19 17 16 15 15 14 14 14 12 11 9 8 7 6 6 6 6 7 8 9 10 11 13 14 15 15 16 17 19 21 21 22 23 24 26 26 27 27 27 27 26 24 22 21 20 21 22 25 28 30 31 31 31 30 29 29 29 29 29 29 29 28 27 25 24 23 23 24 24 24 25 25 26 27 28 29 30 31 33 34 35 36 38 40 41
20 18 16 14 13 12 12 12 11 9 7 6 4 4 5 6 7 8 8 10 10 11 12 13 14 14 15 16 17 18 18 19 20 21 22 22 22 23 23 23 23 23 23 23 23 23 25 28 31 33 33 31 29 27 27 27 28 28 28 28 27 26 25 24 24 23 24 24 24 24 24 25 26 27 28 29 30 32 33 35 36 37 39 41 42
22 19 17 15 12 11 10 10 10 9 8 6 5 4 4 5 6 7 8 9 10 11 12 13 14 14 15 16 17 17 18 18 19 20 20 20 21 23 24 24 24 24 24 24 24 25 27 30 33 33 32 29 27 26 26 27 28 28 27 26 25 24 24 23 23 23 23 23 23 23 24 25 25 27 28 29 31 33 34 36 37 39 40 42 43
27 23 19 17 14 12 10 8 8 7 7 6 5 4 4 5 5 6 7 8 9 9 10 11 11 12 13 15 16 17 19 20 21 22 22 22 24 26 26 26 25 24 24 24 25 26 28 30 31 30 29 28 27 27 28 28 27 27 26 25 24 23 23 23 23 23 23 23 23 23 24 25 26 27 28 30 31 33 35 37 39 40 42 44 45
37 31 26 21 18 16 13 11 9 7 6 5 4 4 4 4 3 4 5 6 6 6 7 7 9 10 13 16 18 21 23 24 24 24 24 24 26 26 26 25 24 24 24 24 25 26 27 27 27 26 26 26 27 27 27 27 26 25 24 23 22 22 22 22 22 22 22 22 23 24 24 25 26 28 29 30 32 34 36 38 40 42 44 46 47
42 40 37 31 26 22 19 16 14 11 9 6 3 1 1 2 3 5 5 6 7 8 8 9 11 14 17 20 22 24 25 25 25 25 25 25 25 25 24 23 22 21 21 22 23 23 24 24 24 24 25 26 26 26 26 25 24 23 22 21 21 21 21 21 21 22 22 23 23 24 25 26 27 28 30 31 34 36 38 40 42 44 45 47 48
Wind_Direction
284 284 284 283 281 280 280 281 279 273 269 266 261 258 257 259 266 270 267 263 258 251 244 239 237 236 237 238 239 240 241 242 243 244 246 248 250 251 252 253 254 255 255 256 256 256 256 256 255 254 253 254 256 259 262 265 268 268 267 265 263 261 258 254 249 246 244 243 242 241 242 246 248 250 253 255 257 260 263 265 266 267 268 269 269
287 286 286 286 285 282 279 278 279 277 273 268 263 259 256 253 252 255 258 262 264 259 252 246 240 237 237 238 241 242 244 245 245 245 247 248 250 251 253 254 254 254 255 256 257 257 257 256 256 255 254 253 253 255 259 263 267 269 267 265 263 261 259 255 251 248 246 244 244 243 244 247 249 250 253 256 258 260 263 264 265 265 265 265 266
288 287 286 286 285 284 281 276 274 273 271 268 264 261 259 255 250 247 247 250 254 257 258 255 250 245 242 241 241 243 244 246 246 246 246 248 249 251 252 253 254 254 255 257 257 257 257 256 256 256 255 254 253 254 257 261 265 267 266 264 262 261 260 258 255 253 251 249 248 247 247 248 251 252 255 258 258 259 260 261 262 263 263 264 264
287 285 284 283 282 282 281 278 274 269 266 265 264 263 261 258 255 250 247 246 246 248 251 254 255 253 251 248 246 245 245 245 246 246 246 246 247 249 251 252 253 254 256 256 256 256 257 256 256 256 257 256 255 254 256 259 262 265 265 264 263 262 262 262 260 258 256 254 252 251 250 250 253 255 257 259 260 260 260 260 260 260 260 261 262
287 286 283 282 281 280 279 278 277 273 267 264 263 263 262 261 260 258 255 251 249 248 248 250 251 253 254 253 252 250 249 248 247 247 246 246 246 247 248 250 252 253 254 255 256 256 257 257 257 257 258 258 257 256 256 257 259 261 263 262 262 262 262 262 262 261 260 259 256 255 254 254 255 258 259 260 261 261 260 261 260 259 259 261 263
288 286 285 284 282 281 279 277 277 275 271 268 266 265 263 263 263 263 263 261 258 256 254 254 253 253 254 254 254 253 252 250 249 248 247 247 246 246 247 248 249 250 252 253 254 255 256 257 257 258 258 258 258 258 258 258 258 259 261 262 262 261 262 262 263 263 262 262 261 260 259 258 258 259 259 260 261 261 262 264 264 263 265 269 271
287 285 285 284 283 282 279 277 275 273 271 269 267 265 263 262 262 264 265 266 265 263 262 261 258 255 254 253 253 252 251 251 250 249 248 247 247 247 247 247 247 248 250 251 252 253 254 255 257 259 259 259 259 258 259 259 259 260 261 262 263 263 263 263 263 264 264 264 264 264 263 262 262 262 261 261 263 265 266 268 271 271 272 276 279
284 283 283 282 282 281 279 277 274 272 270 268 266 264 263 262 261 261 262 263 264 265 264 262 259 255 253 252 252 252 251 252 252 250 248 247 246 246 247 247 246 246 247 248 249 250 250 252 256 258 258 258 259 258 259 259 259 260 261 263 265 266 266 265 264 265 266 265 265 266 266 266 266 265 265 265 267 270 271 273 277 278 278 282 286
280 282 282 281 281 280 279 278 276 274 271 269 266 264 263 263 261 260 260 260 261 263 263 262 259 256 254 252 251 251 252 253 253 253 252 248 246 246 246 247 246 246 246 247 247 248 247 249 252 254 254 256 257 257 258 258 259 260 262 263 265 266 267 267 266 266 266 266 266 267 267 268 269 269 269 269 271 273 275 278 281 282 283 286 290
276 277 278 279 280 280 279 278 277 276 275 272 269 266 263 263 262 261 259 259 260 260 261 261 260 258 256 253 252 251 252 254 254 253 253 251 247 245 245 246 246 246 246 246 247 247 247 248 250 251 251 252 254 256 257 259 260 261 262 263 264 266 267 268 268 266 265 266 267 268 268 270 271 271 271 271 272 275 278 281 284 285 285 287 291
278 275 275 276 278 280 280 280 279 277 276 275 274 271 268 265 263 262 261 261 262 263 262 261 260 259 257 255 254 252 252 254 254 252 251 252 249 246 244 244 245 246 246 246 247 247 248 248 249 250 249 250 252 255 257 259 260 261 262 263 264 265 266 266 266 266 266 265 266 267 268 269 271 271 272 273 274 277 280 283 285 285 286 287 289
286 284 282 279 278 278 280 281 281 279 277 276 275 274 273 271 270 267 266 266 267 268 267 264 260 259 258 257 256 255 253 253 253 253 252 252 251 247 244 243 244 246 247 247 247 247 248 249 249 250 250 250 252 254 256 258 260 261 261 263 264 263 263 263 264 266 266 264 265 266 268 269 270 272 273 274 276 278 280 283 284 284 284 285 286
291 290 289 286 282 280 279 279 279 279 278 276 276 276 276 277 277 276 274 272 271 270 269 267 263 259 258 257 257 256 255 254 254 255 254 253 251 248 245 242 242 244 246 247 247 247 248 249 250 250 250 250 251 253 255 256 258 259 261 264 265 263 261 262 262 264 264 263 263 265 266 268 270 272 273 274 276 278 281 283 283 282 282 284 284
295 293 292 291 288 286 284 282 280 279 278 277 277 278 279 280 280 279 278 276 274 271 269 267 264 260 258 257 256 255 255 254 254 255 255 254 252 250 247 244 243 243 245 246 247 247 248 249 250 250 251 251 252 253 254 255 256 258 262 265 265 262 260 260 260 261 262 262 262 263 264 265 268 270 272 274 276 278 281 282 282 281 282 283 284
299 297 296 295 292 290 287 285 284 282 281 279 277 277 278 278 278 277 275 274 273 271 269 266 264 260 257 256 256 255 253 253 253 253 253 253 252 251 249 246 244 243 243 244 245 246 247 248 248 249 249 250 250 251 252 253 255 259 263 264 263 260 257 257 258 259 260 260 259 260 261 262 265 268 271 273 275 277 280 281 281 281 283 284 285
300 299 297 296 294 292 289 286 283 282 282 281 280 279 277 276 275 275 275 273 273 273 272 269 267 262 258 255 254 254 252 250 250 251 250 250 249 251 251 248 244 243 243 244 245 245 246 246 247 248 248 248 248 249 249 250 254 258 262 262 261 258 256 255 255 256 256 256 257 258 259 261 263 266 269 271 274 277 280 281 281 283 284 285 286
300 298 296 295 294 293 291 289 285 282 280 279 280 280 280 278 276 275 275 275 275 276 275 274 271 268 262 257 254 252 251 249 249 249 249 248 247 248 249 246 243 243 243 244 245 245 246 247 247 248 248 248 248 247 247 250 254 259 261 261 260 257 255 253 252 252 253 254 256 257 258 260 262 266 269 272 275 279 281 283 283 284 285 286 286
301 297 296 296 295 293 291 289 287 285 281 279 277 278 279 279 278 276 275 275 276 277 277 276 274 271 268 262 257 253 250 250 250 249 247 246 245 245 245 242 241 241 242 243 244 245 246 246 248 248 249 249 248 248 249 252 256 259 261 261 260 257 254 251 250 250 251 253 255 256 258 260 262 266 270 274 277 280 282 283 284 285 286 286 287
302 299 296 295 295 295 293 290 287 285 282 279 276 274 274 275 276 276 276 275 275 276 277 277 275 273 271 267 262 256 252 251 251 250 247 245 244 242 240 239 239 240 241 242 242 243 245 246 248 249 249 248 247 247 250 253 256 259 260 260 259 256 252 250 249 249 249 250 253 254 256 258 261 266 270 273 277 279 281 283 284 285 286 286 287
301 300 298 295 294 295 295 293 289 285 282 279 276 273 271 271 272 272 273 274 275 275 276 278 277 274 272 270 267 262 256 252 251 250 248 245 243 240 238 238 239 240 241 242 242 244 246 247 249 249 248 246 246 247 250 254 257 258 258 258 257 253 250 248 248 248 246 247 251 253 254 256 260 265 269 273 276 278 280 282 283 284 285 286 288
301 300 298 297 295 294 294 294 292 288 284 280 277 273 271 270 270 270 270 270 271 273 274 276 277 276 274 271 268 265 260 255 252 251 249 246 243 240 237 238 239 240 241 241 242 244 246 248 248 246 245 244 245 248 252 255 257 257 256 255 252 249 247 247 247 245 244 246 250 253 255 257 260 265 269 273 275 278 279 281 281 283 284 286 287
300 299 298 297 296 294 293 293 292 290 287 283 279 274 271 269 268 269 269 268 268 269 271 272 274 275 275 272 269 266 262 258 254 252 250 248 245 241 238 237 238 239 240 240 241 242 244 244 243 241 242 244 247 250 254 255 255 254 253 251 248 246 246 246 245 244 245 246 250 253 254 257 261 265 269 272 275 277 278 279 280 281 283 285 287
297 297 297 296 295 295 293 292 290 289 288 286 282 277 272 269 268 267 268 267 266 265 266 268 269 270 272 272 270 267 264 261 257 253 250 247 243 240 238 237 237 238 240 241 241 241 240 238 237 237 240 244 247 249 252 252 252 251 250 249 248 246 246 246 244 243 244 245 248 251 254 257 261 265 268 271 273 274 275 276 278 280 282 284 286
295 295 295 294 294 293 292 291 290 289 288 287 285 280 275 272 269 267 267 267 265 263 263 263 264 265 267 269 270 269 268 265 262 258 253 248 242 237 236 237 238 239 240 240 240 239 237 235 235 237 241 244 245 246 247 248 247 246 246 247 247 247 246 245 242 241 242 244 247 250 253 257 260 264 266 269 271 272 273 275 276 279 281 284 286
294 294 294 293 293 292 291 290 289 288 287 286 285 282 278 275 271 268 267 266 264 263 261 260 261 261 262 264 266 268 269 269 267 263 258 253 246 240 239 240 239 238 237 237 237 236 234 234 235 238 240 242 242 242 243 244 244 242 242 243 244 245 244 241 239 239 241 243 246 249 252 255 259 263 266 268 270 271 272 274 276 278 280 282 284
293 293 293 292 292 291 289 288 287 286 285 284 283 282 280 277 273 269 267 265 264 263 262 260 259 257 258 259 261 263 265 267 268 268 264 258 251 243 240 241 240 237 235 235 235 235 235 237 238 239 240 240 239 238 239 240 241 240 239 239 241 242 240 236 235 238 241 244 246 248 251 255 260 263 266 268 269 270 272 273 276 278 279 281 283
292 291 291 290 289 289 288 287 285 284 283 281 280 279 278 277 274 270 267 265 264 263 262 261 259 256 254 255 256 257 259 262 265 268 269 264 257 249 244 241 240 237 235 235 236 238 239 240 240 239 239 239 238 237 236 237 238 239 238 238 239 239 235 232 233 237 240 242 245 247 251 256 260 263 266 267 268 269 270 272 274 276 277 279 281
290 289 289 288 287 286 285 284 283 282 280 279 278 276 275 274 273 271 268 265 264 263 262 262 260 257 255 253 252 252 254 257 260 262 265 267 264 257 251 248 245 242 240 239 239 240 242 242 241 240 241 242 241 239 237 236 237 238 238 237 236 234 231 230 231 234 237 241 244 247 251 255 259 262 265 266 266 267 269 270 272 273 275 277 280
288 287 286 286 285 284 283 282 281 280 278 277 275 274 273 272 271 270 267 265 264 263 262 262 261 260 258 255 252 249 250 252 255 256 256 259 261 258 254 252 251 249 246 244 243 244 245 246 246 245 244 244 244 242 240 238 237 237 237 237 234 230 228 230 232 235 238 241 243 246 250 254 258 261 263 264 264 266 267 268 270 271 274 277 281
288 287 286 285 284 284 283 282 280 279 278 277 275 273 271 269 269 268 266 264 263 263 263 261 260 261 261 257 254 250 248 248 250 251 251 251 254 256 256 254 251 249 247 244 242 241 242 243 243 243 243 243 244 244 243 241 238 236 236 235 232 228 227 230 232 235 238 240 243 246 251 255 258 261 261 262 262 263 265 267 269 272 275 279 282
289 288 288 287 286 284 283 282 281 279 277 276 275 273 270 267 265 264 264 263 262 261 262 260 259 260 260 258 256 254 249 245 246 247 247 245 245 248 252 254 252 250 248 245 242 240 239 239 238 238 239 240 241 242 242 241 238 235 234 233 231 228 228 230 233 236 239 242 245 249 253 256 259 260 260 259 260 261 264 266 269 273 276 280 283
291 290 288 287 286 285 283 282 280 278 277 275 273 272 270 267 263 260 260 260 260 259 259 259 258 258 259 258 257 256 252 248 246 245 244 242 240 240 243 247 249 250 248 247 245 244 242 241 238 236 236 238 239 240 240 240 239 236 234 231 229 229 230 232 235 238 241 244 248 251 254 257 259 259 258 257 257 260 263 266 270 274 278 281 284
291 290 289 287 286 285 283 281 279 277 275 273 271 270 269 267 264 260 256 256 256 256 256 256 256 256 256 256 255 255 253 250 248 245 243 240 238 238 240 242 245 247 246 245 245 244 243 243 242 238 235 235 237 240 242 242 240 237 234 231 230 231 232 234 236 238 241 245 249 251 254 258 259 258 256 256 257 259 263 267 271 275 279 282 284
291 290 289 287 286 284 282 280 277 275 273 270 268 267 267 266 264 261 257 254 253 252 252 253 254 254 254 253 253 252 252 251 249 247 244 240 237 238 242 242 242 243 245 244 243 241 239 239 241 242 241 240 239 240 242 243 241 239 236 233 232 231 232 233 234 237 241 246 248 251 254 257 257 255 254 255 257 260 264 268 273 277 280 282 283
291 290 288 287 285 283 281 279 276 274 271 268 266 266 266 264 263 261 257 253 250 247 247 248 249 250 250 250 250 250 250 251 249 247 245 242 238 238 243 243 240 239 241 241 241 239 238 236 237 240 244 245 245 242 241 241 241 241 239 236 233 232 232 232 233 237 242 245 247 250 254 255 254 253 253 255 258 261 266 270 274 277 279 281 283
293 292 290 288 286 284 281 279 277 274 271 269 267 266 265 264 262 260 257 253 249 246 243 243 245 246 246 246 246 246 248 250 250 247 244 242 239 238 241 244 242 240 240 241 240 240 241 239 238 238 240 241 241 239 238 238 238 238 237 235 233 232 231 231 234 239 243 244 246 250 253 253 251 252 253 255 259 264 268 272 275 277 279 282 284
299 297 295 293 290 287 284 281 279 276 274 271 269 267 266 265 263 260 256 251 248 246 243 242 243 244 243 242 242 243 245 248 250 249 245 242 240 238 239 241 243 242 241 240 239 240 241 242 242 242 242 242 240 237 236 234 233 232 232 232 231 230 229 230 234 239 241 243 246 249 251 250 250 251 253 257 262 266 270 273 276 278 281 284 286
307 305 302 300 296 292 288 285 282 279 277 274 272 270 269 267 264 261 256 250 247 246 245 244 243 243 242 239 239 241 244 246 249 250 246 242 240 239 238 239 242 243 242 240 239 239 241 243 245 245 245 244 242 238 234 231 229 229 229 229 227 227 227 229 234 238 240 243 246 248 248 248 249 251 255 259 264 268 271 274 277 280 283 286 288
314 312 309 305 301 298 294 290 287 284 281 278 275 273 271 268 265 261 256 251 247 246 246 245 244 243 241 239 238 241 244 246 248 250 248 245 243 241 240 241 243 244 243 242 241 242 243 246 247 246 243 241 239 236 233 231 228 227 226 226 225 225 227 231 235 238 239 241 243 244 245 246 248 252 256 261 265 269 273 276 280 282 286 288 291
319 318 315 311 308 304 301 297 295 292 288 284 280 275 272 269 266 262 257 253 249 247 246 245 243 242 241 239 239 242 245 247 249 249 249 247 244 241 239 241 243 244 243 244 244 246 248 250 249 245 240 237 234 232 230 228 225 223 223 223 223 225 228 232 235 236 237 238 240 241 243 245 249 254 259 263 268 271 275 278 282 285 288 291 293
322 322 320 319 316 314 310 306 303 298 294 290 285 281 276 271 266 262 259 254 251 248 245 242 240 239 240 240 241 242 245 247 248 248 248 246 243 238 237 238 241 242 243 244 246 247 250 253 251 243 236 233 230 226 224 223 221 219 218 219 221 225 229 232 233 234 235 236 237 238 241 246 251 256 261 266 270 273 277 280 284 287 290 292 294
325 326 326 326 324 321 317 312 305 300 296 293 290 286 281 276 270 264 258 253 248 244 240 239 239 239 240 241 242 243 246 246 245 244 243 242 238 235 234 237 240 242 243 244 244 246 249 252 248 239 232 229 227 223 221 219 218 216 216 218 222 226 229 231 232 232 232 233 234 237 242 248 253 259 263 268 272 276 279 282 285 288 291 294 296
328 329 330 330 327 323 320 316 311 305 300 297 295 293 288 282 275 267 258 250 245 241 238 238 239 241 242 242 244 246 247 245 241 238 237 234 232 231 232 234 238 241 242 242 242 241 240 238 233 227 224 223 220 217 215 215 215 215 217 220 224 227 229 229 229 229 229 231 234 239 245 250 256 261 265 269 273 277 280 284 287 290 293 295 296
333 334 334 332 329 325 322 321 320 317 312 308 306 303 297 288 280 272 262 253 247 244 242 242 243 244 245 245 245 244 242 238 234 231 229 228 227 228 230 232 234 237 239 239 236 231 223 216 214 213 213 211 207 205 206 210 213 217 221 224 225 226 226 226 225 226 228 232 237 242 248 253 258 262 267 271 275 278 282 285 289 292 294 296 297
336 339 340 337 333 330 325 323 323 323 322 321 320 316 310 302 289 272 261 254 250 248 246 246 245 244 242 240 238 236 234 230 227 224 224 224 223 223 225 228 230 231 230 226 219 210 204 203 203 204 203 201 198 199 203 209 214 217 220 221 221 221 221 221 222 225 229 235 240 245 250 255 260 265 270 274 278 281 285 289 291 293 295 297 298
336 337 341 341 338 335 331 327 325 323 322 321 316 309 303 294 278 262 252 247 244 242 240 239 237 234 232 231 230 230 229 226 224 222 222 222 221 221 222 223 221 217 210 200 194 192 194 196 198 198 196 195 196 200 206 210 213 215 216 216 216 217 218 219 223 227 232 237 242 247 252 258 263 268 273 277 281 285 288 291 293 294 296 298 300
343 339 338 339 339 339 339 338 334 328 322 316 303 283 271 265 258 247 239 235 231 229 229 229 227 226 225 223 222 223 223 220 217 215 215 215 213 210 208 204 199 193 186 181 181 185 192 195 195 194 192 193 196 201 206 208 209 210 210 211 213 215 217 220 225 229 234 239 244 250 255 261 267 272 276 280 284 287 290 292 294 295 297 299 301
360 352 347 343 340 339 340 342 340 337 333 330 323 303 278 263 255 249 244 239 235 233 231 229 228 228 225 220 216 214 210 204 198 193 192 192 191 188 185 182 179 177 176 177 181 188 194 195 193 191 191 192 194 197 201 202 204 205 207 209 212 215 219 224 229 233 237 243 248 253 259 265 270 275 279 283 286 289 291 293 295 297 299 301 302
20 13 5 359 354 348 342 338 335 331 326 322 315 301 284 266 253 246 244 242 240 239 236 233 229 224 218 210 202 194 185 177 172 169 169 170 172 172 171 170 169 171 174 178 185 191 193 192 190 189 189 189 191 194 197 199 202 204 207 210 214 218 222 228 232 237 242 248 253 258 264 269 274 278 282 285 288 291 293 295 297 299 300 302 302
33 31 27 22 16 11 4 357 349 337 325 310 288 270 260 247 225 212 211 213 216 218 217 215 210 202 192 183 175 167 161 157 155 156 157 160 163 163 162 162 165 168 173 179 184 187 187 187 187 188 188 189 191 194 197 199 202 205 208 212 217 222 227 232 238 242 248 254 259 264 269 273 277 281 285 288 291 293 294 296 298 300 301 302 303
35 37 38 38 36 33 29 24 18 12 5 359 349 314 211 174 161 156 156 158 161 162 164 168 171 172 170 166 161 157 153 150 150 152 153 155 156 155 154 156 160 165 170 174 177 179 181 183 184 185 187 190 192 194 197 200 203 207 212 217 222 227 233 238 244 249 254 260 264 269 273 277 281 285 288 291 293 294 296 298 300 301 302 304 305
Height
3017 3017 3017 3017 3018 3018 3018 3018 3017 3015 3012 3010 3009 3008 3007 3007 3008 3008 3009 3009 3010 3010 3010 3011 3012 3014 3016 3017 3019 3020 3021 3023 3024 3025 3026 3027 3028 3029 3030 3031 3031 3032 3033 3034 3035 3036 3037 3038 3039 3040 3040 3041 3042 3042 3042 3042 3043 3043 3044 3044 3045 3046 3047 3048 3048 3047 3046 3046 3046 3047 3047 3047 3046 3046 3046 3045 3044 3043 3042 3042 3042 3042 3043 3043 3043
3011 3011 3011 3011 3012 3013 3013 3013 3013 3011 3009 3007 3005 3004 3003 3003 3003 3003 3004 3005 3006 3007 3007 3008 3008 3009 3010 3012 3013 3015 3016 3017 3018 3019 3021 3022 3023 3023 3024 3025 3025 3026 3027 3028 3029 3031 3032 3032 3033 3034 3035 3035 3036 3037 3037 3037 3038 3038 3039 3039 3040 3041 3042 3043 3044 3043 3042 3041 3041 3042 3042 3042 3041 3041 3041 3041 3040 3040 3039 3038 3038 3038 3038 3038 3038
3006 3005 3005 3006 3006 3006 3007 3007 3007 3006 3004 3003 3001 3000 2999 2999 2999 2998 2999 2999 3000 3001 3002 3004 3004 3005 3005 3006 3007 3008 3010 3011 3013 3014 3015 3016 3017 3018 3018 3019 3020 3020 3021 3022 3024 3025 3026 3027 3027 3028 3029 3030 3031 3031 3032 3033 3033 3034 3034 3034 3035 3035 3036 3037 3038 3039 3038 3037 3037 3038 3038 3038 3037 3037 3037 3037 3037 3037 3036 3035 3034 3033 3033 3032 3032
2999 2999 2999 3000 3000 3000 3000 3000 3000 2999 2998 2997 2996 2995 2994 2994 2994 2993 2993 2993 2994 2995 2996 2997 2998 2999 3000 3001 3001 3002 3004 3005 3006 3007 3009 3010 3010 3011 3012 3013 3013 3014 3015 3016 3017 3018 3019 3020 3022 3023 3023 3024 3025 3026 3027 3028 3028 3029 3030 3030 3030 3030 3031 3032 3033 3033 3033 3033 3033 3034 3034 3033 3033 3033 3032 3032 3032 3032 3031 3030 3029 3028 3028 3027 3027
2992 2992 2992 2992 2992 2992 2992 2992 2992 2991 2991 2990 2989 2989 2989 2989 2989 2988 2988 2988 2988 2989 2989 2990 2991 2992 2994 2995 2996 2997 2998 2999 3000 3001 3002 3003 3004 3004 3005 3006 3007 3008 3009 3010 3011 3012 3013 3014 3016 3016 3017 3018 3019 3020 3021 3022 3023 3023 3024 3025 3025 3025 3025 3026 3027 3027 3028 3028 3029 3029 3029 3029 3028 3028 3027 3027 3026 3026 3025 3025 3024 3024 3024 3023 3023
2985 2984 2984 2983 2984 2984 2984 2984 2983 2983 2983 2983 2982 2982 2983 2983 2983 2983 2983 2983 2983 2983 2984 2984 2985 2986 2987 2988 2990 2991 2991 2992 2993 2994 2995 2996 2997 2997 2998 2999 3000 3001 3002 3003 3004 3006 3007 3008 3009 3010 3010 3011 3013 3015 3016 3016 3017 3017 3018 3019 3019 3020 3020 3021 3021 3022 3022 3022 3023 3023 3023 3023 3023 3022 3022 3022 3021 3020 3019 3019 3019 3018 3018 3018 3017
2978 2977 2976 2975 2975 2975 2975 2976 2975 2974 2974 2974 2975 2975 2976 2976 2976 2976 2976 2976 2977 2978 2978 2978 2979 2979 2980 2981 2982 2983 2983 2984 2985 2986 2987 2988 2989 2989 2990 2991 2993 2994 2996 2997 2998 2999 3000 3001 3002 3003 3004 3005 3006 3008 3009 3009 3010 3011 3012 3012 3013 3014 3014 3015 3015 3016 3016 3016 3016 3017 3017 3017 3017 3017 3016 3016 3015 3014 3013 3013 3013 3012 3012 3011 3011
2972 2971 2970 2969 2968 2967 2967 2967 2967 2967 2966 2966 2966 2967 2968 2968 2968 2968 2969 2969 2970 2970 2971 2971 2972 2972 2973 2974 2975 2975 2975 2976 2977 2978 2979 2979 2980 2981 2982 2983 2985 2987 2989 2990 2991 2992 2993 2993 2994 2996 2997 2998 3000 3001 3002 3002 3002 3003 3005 3006 3006 3007 3008 3009 3009 3009 3009 3009 3009 3009 3009 3010 3010 3010 3010 3009 3008 3008 3007 3006 3006 3006 3006 3005 3003
2967 2965 2964 2963 2961 2960 2960 2960 2959 2959 2958 2958 2959 2959 2959 2960 2960 2960 2961 2961 2962 2962 2963 2963 2964 2965 2965 2965 2966 2966 2967 2969 2970 2971 2971 2971 2972 2973 2973 2975 2977 2979 2981 2982 2983 2984 2985 2985 2986 2989 2990 2991 2992 2993 2994 2994 2995 2996 2997 2998 2999 3000 3001 3001 3002 3002 3002 3002 3002 3002 3002 3002 3002 3002 3002 3002 3002 3001 3000 3000 2999 2998 2998 2997 2996
2962 2960 2958 2957 2955 2954 2954 2953 2952 2951 2950 2950 2951 2951 2951 2951 2952 2952 2952 2953 2954 2954 2954 2955 2956 2956 2957 2956 2956 2957 2958 2960 2961 2961 2962 2963 2963 2964 2965 2966 2967 2969 2972 2974 2975 2975 2976 2978 2979 2981 2982 2984 2985 2985 2986 2986 2987 2988 2989 2990 2991 2992 2993 2994 2994 2994 2994 2994 2994 2994 2994 2995 2995 2995 2995 2995 2995 2994 2993 2993 2992 2991 2991 2990 2989
2956 2955 2953 2951 2949 2948 2947 2947 2946 2945 2944 2943 2943 2943 2944 2943 2943 2943 2944 2945 2945 2945 2946 2947 2947 2947 2947 2947 2947 2947 2949 2951 2951 2951 2952 2953 2954 2955 2956 2957 2959 2960 2962 2964 2965 2967 2969 2970 2971 2972 2974 2975 2976 2977 2978 2978 2979 2981 2981 2982 2983 2985 2986 2986 2987 2987 2987 2987 2987 2987 2988 2988 2988 2988 2988 2988 2988 2987 2987 2986 2986 2985 2984 2984 2983
2950 2949 2948 2946 2945 2943 2941 2940 2939 2939 2938 2937 2936 2936 2936 2935 2935 2935 2935 2935 2935 2936 2937 2937 2937 2938 2938 2938 2939 2940 2941 2942 2942 2942 2943 2944 2944 2945 2946 2948 2950 2952 2953 2955 2956 2958 2960 2961 2962 2964 2966 2967 2968 2969 2970 2971 2972 2973 2973 2974 2975 2976 2977 2978 2979 2980 2980 2980 2980 2981 2981 2981 2981 2982 2982 2982 2981 2981 2981 2980 2979 2979 2978 2978 2977
2943 2942 2942 2941 2939 2938 2936 2934 2933 2932 2931 2929 2928 2928 2927 2927 2926 2926 2925 2925 2925 2926 2926 2926 2927 2928 2928 2929 2930 2931 2932 2933 2934 2934 2934 2935 2935 2935 2936 2939 2941 2943 2945 2946 2947 2948 2950 2952 2954 2956 2958 2959 2960 2961 2962 2963 2964 2964 2965 2966 2967 2968 2969 2970 2971 2972 2973 2973 2973 2974 2975 2974 2975 2975 2976 2975 2975 2975 2975 2974 2974 2973 2972 2972 2972
2934 2933 2934 2934 2933 2932 2930 2928 2927 2925 2923 2922 2920 2919 2918 2918 2917 2916 2916 2916 2915 2915 2915 2915 2916 2917 2917 2918 2919 2920 2922 2923 2924 2924 2925 2926 2927 2927 2928 2929 2932 2934 2936 2937 2938 2939 2941 2943 2945 2948 2949 2950 2951 2953 2954 2955 2956 2956 2957 2958 2959 2960 2961 2962 2963 2964 2965 2966 2967 2967 2968 2968 2968 2969 2969 2969 2969 2969 2969 2969 2968 2968 2967 2966 2966
2925 2924 2924 2924 2924 2923 2922 2921 2920 2918 2916 2913 2912 2910 2909 2908 2908 2907 2907 2906 2905 2905 2905 2905 2905 2906 2906 2907 2908 2910 2912 2913 2913 2914 2915 2917 2918 2918 2918 2919 2921 2924 2926 2927 2928 2930 2931 2934 2936 2938 2940 2941 2943 2944 2945 2947 2948 2948 2949 2949 2950 2951 2952 2953 2955 2957 2958 2959 2960 2960 2961 2961 2962 2962 2962 2963 2963 2963 2963 2963 2962 2962 2961 2961 2960
2916 2915 2915 2914 2913 2912 2911 2911 2910 2909 2907 2905 2903 2902 2901 2900 2899 2898 2897 2897 2896 2896 2895 2895 2895 2895 2896 2896 2897 2900 2902 2902 2902 2903 2905 2906 2907 2908 2909 2910 2912 2914 2916 2917 2918 2920 2922 2924 2927 2929 2931 2932 2933 2934 2936 2937 2938 2939 2940 2941 2941 2942 2943 2945 2947 2949 2950 2951 2953 2953 2954 2955 2955 2955 2956 2956 2957 2957 2956 2956 2956 2955 2955 2954 2954
2909 2907 2906 2905 2903 2902 2900 2899 2899 2899 2898 2897 2895 2894 2893 2892 2892 2890 2889 2888 2888 2887 2886 2886 2886 2886 2886 2887 2887 2890 2892 2892 2892 2893 2895 2896 2897 2897 2899 2900 2902 2904 2906 2908 2909 2911 2913 2916 2918 2920 2921 2923 2924 2925 2926 2927 2928 2930 2931 2932 2932 2934 2935 2937 2939 2940 2942 2944 2946 2947 2947 2948 2948 2949 2949 2950 2950 2951 2950 2949 2949 2949 2948 2947 2947
2901 2899 2897 2895 2894 2892 2891 2889 2888 2888 2888 2887 2887 2886 2886 2885 2883 2882 2881 2880 2880 2879 2877 2877 2877 2877 2877 2877 2878 2879 2882 2883 2883 2883 2884 2885 2886 2887 2889 2891 2893 2895 2897 2899 2901 2903 2905 2907 2909 2911 2912 2914 2915 2915 2916 2918 2919 2921 2922 2923 2924 2925 2927 2928 2930 2932 2935 2937 2939 2940 2941 2942 2942 2943 2943 2943 2944 2944 2944 2943 2943 2943 2942 2941 2940
2893 2891 2889 2887 2885 2883 2882 2880 2879 2878 2877 2877 2877 2877 2877 2876 2875 2874 2873 2872 2871 2871 2870 2869 2868 2868 2868 2868 2868 2870 2871 2873 2873 2873 2874 2874 2875 2877 2878 2880 2883 2885 2887 2889 2891 2894 2896 2899 2901 2902 2903 2904 2905 2906 2907 2909 2910 2912 2914 2915 2916 2917 2919 2921 2922 2925 2927 2930 2932 2933 2934 2935 2936 2936 2936 2936 2937 2938 2938 2937 2937 2936 2935 2934 2933
2885 2883 2881 2879 2877 2876 2874 2872 2870 2869 2868 2867 2867 2867 2867 2866 2866 2865 2864 2863 2863 2862 2862 2861 2860 2861 2860 2860 2860 2861 2861 2862 2863 2863 2863 2863 2864 2866 2868 2870 2873 2875 2877 2879 2882 2884 2887 2889 2891 2893 2894 2894 2895 2897 2899 2901 2902 2904 2905 2907 2908 2910 2912 2914 2915 2917 2919 2921 2924 2926 2927 2928 2928 2928 2928 2929 2930 2930 2931 2931 2930 2929 2928 2927 2927
2876 2874 2873 2871 2870 2868 2867 2864 2862 2861 2860 2858 2857 2857 2857 2856 2855 2855 2855 2854 2854 2854 2854 2854 2853 2853 2853 2852 2852 2852 2852 2853 2853 2854 2853 2853 2853 2855 2858 2861 2864 2866 2867 2870 2873 2876 2878 2880 2882 2884 2885 2886 2887 2889 2890 2892 2894 2896 2897 2899 2902 2904 2905 2906 2907 2909 2911 2914 2917 2919 2920 2921 2921 2920 2921 2921 2922 2923 2924 2924 2923 2922 2922 2921 2920
2866 2865 2864 2863 2861 2860 2859 2857 2855 2853 2852 2851 2848 2847 2847 2847 2846 2845 2844 2844 2844 2845 2846 2846 2845 2845 2846 2845 2845 2844 2844 2844 2844 2844 2845 2845 2845 2846 2849 2852 2854 2855 2858 2860 2863 2866 2868 2871 2873 2875 2876 2878 2879 2880 2882 2884 2886 2888 2890 2892 2894 2895 2897 2899 2900 2902 2904 2907 2911 2912 2913 2914 2913 2913 2914 2914 2915 2916 2916 2917 2916 2916 2915 2914 2913
2857 2855 2855 2853 2852 2851 2849 2848 2847 2845 2844 2843 2840 2838 2838 2838 2837 2836 2835 2834 2833 2834 2836 2837 2837 2837 2838 2839 2838 2837 2836 2836 2836 2836 2836 2837 2837 2838 2839 2842 2844 2846 2849 2852 2854 2856 2858 2861 2864 2866 2867 2869 2870 2871 2873 2875 2878 2880 2882 2883 2885 2887 2890 2892 2894 2895 2898 2901 2904 2905 2906 2906 2907 2907 2907 2907 2908 2909 2909 2910 2910 2910 2909 2908 2907
2847 2845 2845 2843 2843 2841 2839 2838 2838 2836 2835 2834 2831 2830 2830 2829 2828 2827 2826 2824 2823 2824 2826 2827 2827 2828 2830 2831 2832 2831 2830 2828 2828 2828 2829 2829 2829 2829 2830 2832 2835 2838 2840 2842 2845 2847 2850 2852 2854 2856 2857 2859 2860 2862 2864 2866 2869 2872 2873 2875 2878 2880 2882 2885 2887 2890 2892 2894 2896 2898 2899 2899 2900 2900 2900 2900 2901 2902 2903 2903 2904 2903 2903 2903 2902
2836 2834 2833 2832 2831 2830 2829 2827 2827 2826 2825 2824 2822 2820 2820 2819 2818 2818 2817 2816 2815 2814 2815 2816 2817 2818 2820 2822 2824 2825 2824 2822 2821 2821 2821 2822 2822 2823 2823 2824 2827 2829 2831 2834 2836 2839 2841 2843 2844 2846 2848 2849 2851 2853 2855 2857 2860 2863 2865 2867 2869 2871 2874 2878 2882 2884 2886 2888 2890 2891 2892 2892 2892 2893 2893 2893 2895 2896 2896 2897 2897 2897 2897 2897 2897
2826 2824 2822 2820 2818 2817 2816 2815 2815 2814 2813 2813 2811 2810 2810 2809 2808 2808 2808 2807 2806 2806 2805 2806 2806 2808 2810 2813 2815 2816 2817 2816 2816 2815 2815 2815 2815 2816 2816 2817 2819 2822 2824 2826 2828 2831 2833 2834 2836 2837 2839 2840 2842 2844 2847 2849 2852 2855 2857 2859 2861 2863 2867 2872 2876 2878 2880 2882 2883 2884 2885 2885 2886 2886 2886 2887 2888 2890 2890 2890 2891 2891 2891 2892 2892
2813 2811 2809 2807 2804 2803 2801 2800 2800 2800 2800 2800 2798 2798 2798 2798 2797 2797 2798 2798 2797 2796 2796 2796 2797 2798 2800 2803 2805 2807 2808 2810 2810 2810 2810 2810 2810 2810 2809 2809 2811 2815 2817 2819 2820 2823 2824 2826 2828 2830 2831 2832 2834 2838 2840 2841 2843 2846 2849 2851 2853 2856 2861 2867 2870 2871 2873 2874 2876 2877 2878 2879 2879 2880 2880 2882 2883 2884 2884 2884 2884 2885 2886 2886 2887
2801 2797 2795 2792 2789 2788 2786 2784 2784 2784 2784 2785 2785 2785 2785 2786 2785 2785 2787 2788 2787 2787 2787 2787 2787 2789 2790 2792 2794 2796 2799 2802 2804 2804 2805 2804 2804 2804 2804 2803 2804 2807 2810 2812 2813 2815 2817 2819 2821 2823 2825 2826 2828 2830 2832 2834 2835 2837 2840 2843 2845 2850 2856 2860 2861 2863 2865 2867 2869 2871 2872 2873 2873 2874 2875 2876 2877 2878 2878 2878 2879 2879 2880 2881 2881
2787 2783 2781 2778 2775 2773 2771 2769 2768 2767 2767 2768 2770 2771 2772 2772 2772 2772 2775 2777 2777 2777 2777 2777 2779 2780 2781 2782 2784 2786 2789 2794 2797 2797 2797 2797 2798 2798 2797 2797 2797 2800 2803 2805 2806 2807 2809 2812 2814 2816 2818 2819 2820 2822 2824 2826 2828 2830 2832 2835 2839 2845 2850 2852 2854 2856 2859 2861 2863 2865 2866 2866 2867 2868 2869 2870 2871 2872 2872 2872 2873 2873 2874 2875 2875
2770 2768 2766 2763 2760 2758 2755 2753 2752 2751 2750 2751 2753 2755 2757 2759 2759 2759 2762 2766 2768 2767 2767 2768 2770 2771 2772 2773 2775 2777 2779 2784 2788 2789 2789 2790 2791 2792 2792 2791 2791 2792 2795 2798 2799 2800 2801 2803 2805 2808 2810 2811 2812 2815 2818 2820 2822 2823 2825 2828 2834 2840 2844 2846 2849 2851 2854 2855 2857 2859 2859 2860 2861 2862 2863 2864 2865 2865 2866 2866 2867 2867 2868 2868 2869
2754 2752 2750 2747 2745 2743 2740 2738 2737 2736 2736 2736 2736 2737 2740 2744 2746 2747 2749 2752 2756 2757 2758 2759 2762 2762 2763 2764 2767 2769 2770 2773 2777 2780 2782 2783 2784 2785 2787 2786 2786 2786 2788 2790 2792 2793 2794 2795 2796 2799 2801 2803 2805 2808 2810 2813 2815 2816 2819 2824 2829 2833 2836 2839 2843 2846 2848 2850 2852 2853 2853 2854 2855 2856 2857 2858 2859 2859 2860 2860 2861 2861 2862 2862 2862
2736 2735 2733 2730 2728 2727 2725 2723 2722 2721 2721 2722 2722 2722 2724 2727 2731 2735 2737 2739 2742 2746 2748 2750 2752 2754 2755 2756 2758 2760 2762 2764 2766 2771 2774 2776 2777 2778 2779 2780 2780 2781 2782 2783 2785 2788 2789 2789 2790 2792 2794 2796 2799 2801 2803 2806 2809 2812 2816 2820 2823 2826 2830 2834 2837 2840 2843 2845 2846 2847 2848 2849 2850 2850 2851 2852 2853 2854 2854 2854 2855 2855 2856 2856 2856
2719 2717 2716 2714 2712 2710 2709 2709 2708 2707 2707 2708 2709 2710 2711 2712 2716 2721 2725 2727 2730 2733 2737 2740 2742 2744 2747 2748 2750 2752 2754 2756 2758 2761 2765 2768 2770 2771 2772 2772 2773 2774 2775 2777 2779 2781 2784 2785 2785 2787 2788 2790 2793 2795 2798 2802 2805 2809 2812 2816 2818 2822 2825 2829 2831 2834 2837 2839 2840 2842 2843 2844 2844 2845 2846 2847 2847 2848 2848 2848 2849 2849 2849 2850 2850
2704 2702 2701 2699 2697 2695 2695 2695 2695 2695 2695 2695 2696 2697 2699 2701 2703 2706 2711 2715 2719 2722 2726 2729 2732 2735 2737 2740 2742 2744 2746 2749 2751 2753 2756 2760 2763 2764 2765 2765 2765 2766 2768 2771 2772 2774 2777 2779 2781 2783 2785 2787 2789 2792 2795 2798 2801 2804 2808 2811 2814 2817 2819 2822 2825 2828 2831 2833 2834 2836 2837 2838 2839 2839 2840 2841 2842 2842 2842 2842 2843 2843 2843 2844 2844
2691 2689 2688 2686 2684 2683 2682 2682 2682 2682 2683 2684 2685 2686 2688 2690 2692 2694 2698 2702 2706 2710 2714 2718 2722 2725 2727 2730 2734 2736 2739 2741 2744 2747 2748 2751 2755 2757 2758 2758 2758 2759 2760 2763 2765 2768 2770 2773 2776 2778 2781 2783 2785 2787 2790 2793 2797 2800 2803 2806 2808 2811 2813 2816 2820 2823 2825 2827 2828 2830 2831 2832 2833 2834 2835 2836 2836 2836 2837 2837 2837 2837 2837 2838 2837
2681 2679 2678 2677 2675 2674 2673 2672 2671 2672 2672 2674 2675 2677 2678 2680 2682 2685 2688 2691 2695 2700 2704 2708 2712 2715 2718 2722 2725 2729 2731 2733 2736 2739 2742 2744 2747 2749 2750 2751 2753 2753 2754 2756 2760 2762 2764 2767 2770 2772 2775 2777 2779 2781 2784 2787 2790 2794 2797 2800 2803 2805 2808 2811 2815 2817 2819 2821 2823 2824 2825 2827 2828 2829 2829 2830 2831 2831 2831 2831 2831 2831 2831 2831 2831
2675 2672 2671 2669 2668 2666 2665 2664 2664 2663 2664 2665 2666 2668 2669 2671 2673 2676 2679 2682 2685 2690 2694 2698 2702 2706 2710 2714 2718 2721 2723 2725 2728 2731 2735 2737 2739 2741 2743 2746 2747 2748 2748 2750 2753 2756 2758 2761 2764 2768 2770 2772 2774 2776 2778 2781 2784 2788 2791 2794 2797 2799 2803 2806 2809 2811 2814 2816 2818 2819 2820 2821 2823 2824 2824 2825 2825 2826 2826 2826 2826 2826 2825 2825 2824
2670 2667 2665 2663 2661 2660 2658 2657 2657 2657 2657 2658 2659 2660 2662 2664 2666 2668 2671 2674 2677 2682 2686 2690 2694 2698 2702 2707 2710 2712 2715 2718 2719 2722 2726 2729 2731 2733 2737 2740 2741 2742 2743 2744 2746 2750 2753 2757 2760 2763 2765 2767 2769 2771 2773 2776 2778 2782 2785 2788 2791 2794 2797 2800 2803 2806 2809 2811 2812 2814 2815 2816 2818 2819 2819 2820 2820 2820 2821 2821 2820 2820 2819 2818 2817
2666 2664 2662 2659 2656 2654 2653 2652 2651 2651 2652 2653 2653 2654 2656 2657 2659 2662 2665 2668 2671 2675 2679 2683 2687 2692 2696 2700 2703 2705 2707 2710 2712 2715 2718 2722 2725 2728 2732 2735 2736 2737 2739 2740 2742 2745 2748 2752 2755 2757 2759 2762 2764 2766 2768 2771 2774 2777 2780 2783 2786 2789 2792 2795 2798 2801 2803 2805 2807 2808 2810 2811 2813 2814 2814 2815 2815 2815 2816 2815 2815 2814 2813 2812 2811
2663 2661 2659 2656 2654 2651 2650 2649 2648 2647 2648 2648 2649 2650 2651 2653 2655 2657 2660 2663 2666 2669 2673 2677 2682 2686 2689 2693 2696 2699 2700 2703 2706 2709 2711 2715 2719 2723 2726 2728 2730 2732 2734 2735 2737 2740 2743 2747 2750 2752 2754 2756 2758 2760 2763 2766 2769 2772 2776 2779 2782 2785 2788 2791 2793 2795 2797 2799 2801 2803 2805 2806 2807 2808 2809 2810 2810 2810 2810 2810 2809 2808 2807 2806 2805
2661 2659 2657 2654 2652 2650 2649 2648 2646 2646 2645 2646 2646 2647 2648 2650 2652 2654 2656 2659 2662 2665 2669 2672 2676 2680 2683 2686 2689 2692 2694 2697 2699 2702 2704 2708 2712 2716 2719 2722 2724 2727 2729 2731 2733 2735 2738 2742 2745 2747 2749 2751 2753 2755 2758 2761 2764 2768 2771 2775 2778 2781 2784 2786 2789 2791 2793 2795 2796 2798 2799 2801 2802 2803 2804 2805 2805 2805 2805 2804 2803 2802 2801 2800 2799
2659 2657 2655 2653 2651 2649 2649 2647 2646 2645 2644 2644 2645 2646 2646 2648 2649 2651 2653 2655 2658 2661 2664 2668 2671 2675 2678 2681 2684 2686 2689 2691 2693 2695 2698 2702 2705 2709 2712 2715 2718 2721 2724 2726 2728 2731 2734 2737 2739 2741 2744 2746 2748 2751 2754 2757 2761 2764 2768 2771 2774 2777 2780 2782 2785 2786 2788 2790 2791 2793 2795 2796 2797 2798 2799 2799 2800 2800 2799 2799 2798 2797 2796 2794 2792
2658 2656 2654 2652 2651 2650 2648 2647 2646 2645 2644 2644 2644 2645 2645 2646 2648 2649 2651 2653 2655 2658 2661 2664 2668 2671 2674 2676 2679 2681 2683 2685 2688 2690 2693 2696 2699 2703 2707 2710 2713 2716 2719 2721 2723 2726 2728 2731 2733 2736 2739 2741 2744 2748 2751 2755 2758 2762 2765 2768 2771 2774 2776 2779 2781 2782 2784 2785 2787 2788 2790 2791 2792 2793 2794 2794 2795 2794 2794 2793 2792 2791 2790 2788 2787
2657 2655 2653 2652 2651 2650 2648 2647 2646 2645 2644 2644 2644 2645 2645 2646 2647 2648 2650 2652 2654 2656 2659 2662 2665 2667 2670 2672 2674 2676 2678 2680 2682 2685 2688 2691 2695 2699 2702 2705 2708 2711 2713 2716 2718 2721 2723 2725 2728 2731 2734 2737 2740 2744 2748 2752 2756 2759 2762 2765 2768 2770 2773 2775 2777 2778 2780 2781 2783 2784 2786 2787 2788 2788 2789 2789 2790 2789 2788 2787 2786 2785 2784 2782 2780
2657 2655 2653 2652 2651 2649 2648 2647 2646 2645 2645 2644 2644 2644 2645 2646 2647 2648 2649 2651 2653 2655 2657 2659 2662 2664 2666 2669 2670 2672 2674 2676 2678 2681 2684 2687 2691 2694 2698 2701 2703 2706 2708 2711 2713 2716 2718 2721 2724 2727 2730 2733 2737 2741 2745 2749 2752 2755 2758 2761 2764 2766 2768 2770 2772 2775 2776 2778 2780 2781 2782 2782 2783 2784 2784 2784 2784 2783 2782 2781 2780 2779 2777 2776 2774
2657 2655 2653 2652 2651 2650 2648 2647 2646 2645 2645 2645 2645 2645 2645 2646 2646 2647 2648 2650 2651 2653 2655 2658 2660 2662 2664 2666 2667 2669 2671 2673 2676 2678 2681 2684 2687 2690 2693 2696 2699 2701 2704 2706 2709 2712 2715 2718 2720 2723 2727 2730 2735 2739 2742 2746 2749 2752 2755 2758 2760 2762 2764 2766 2769 2771 2773 2775 2776 2777 2778 2778 2779 2779 2779 2779 2778 2777 2776 2775 2774 2773 2771 2769 2767
2658 2656 2654 2652 2651 2650 2649 2647 2647 2646 2645 2645 2644 2645 2645 2645 2646 2647 2648 2649 2651 2653 2654 2656 2658 2660 2661 2663 2664 2666 2669 2671 2673 2676 2678 2681 2684 2687 2690 2693 2696 2698 2700 2703 2706 2709 2712 2714 2717 2720 2724 2728 2732 2736 2740 2744 2747 2750 2752 2754 2757 2759 2761 2763 2765 2768 2770 2771 2772 2773 2773 2774 2774 2774 2774 2774 2773 2772 2771 2770 2768 2767 2765 2763 2761
2660 2657 2655 2653 2651 2650 2649 2648 2647 2646 2645 2645 2645 2645 2645 2646 2647 2648 2649 2650 2651 2652 2653 2655 2656 2657 2659 2660 2662 2664 2666 2669 2671 2673 2676 2678 2681 2684 2686 2689 2692 2695 2697 2700 2703 2706 2709 2712 2715 2718 2722 2726 2731 2735 2738 2741 2744 2746 2749 2751 2754 2756 2758 2760 2763 2765 2766 2767 2768 2769 2769 2769 2770 2769 2769 2769 2767 2766 2765 2764 2762 2760 2759 2756 2754
2663 2660 2657 2655 2653 2651 2650 2648 2647 2646 2646 2646 2645 2646 2646 2646 2647 2648 2648 2649 2650 2651 2652 2653 2654 2656 2657 2658 2660 2662 2664 2666 2669 2671 2674 2676 2679 2681 2684 2687 2690 2692 2695 2698 2701 2704 2707 2711 2714 2718 2722 2725 2729 2733 2736 2739 2741 2744 2747 2749 2751 2754 2756 2758 2760 2761 2762 2763 2764 2764 2765 2765 2765 2765 2764 2764 2762 2761 2759 2758 2756 2754 2752 2750 2748
2668 2664 2660 2657 2655 2653 2651 2650 2649 2648 2647 2646 2646 2646 2646 2646 2646 2647 2647 2648 2649 2650 2651 2653 2654 2655 2656 2658 2660 2661 2663 2665 2668 2671 2673 2676 2678 2680 2683 2686 2689 2692 2695 2698 2701 2704 2707 2711 2714 2718 2721 2724 2728 2731 2734 2737 2740 2742 2745 2747 2749 2751 2753 2755 2756 2757 2758 2758 2759 2760 2760 2760 2760 2760 2759 2758 2757 2755 2753 2751 2750 2748 2746 2743 2740
2674 2669 2665 2662 2658 2656 2654 2652 2651 2650 2649 2648 2647 2646 2646 2646 2646 2647 2647 2648 2649 2650 2651 2652 2654 2656 2657 2659 2660 2662 2664 2666 2668 2671 2673 2676 2679 2681 2684 2687 2690 2693 2695 2698 2701 2704 2707 2711 2714 2717 2721 2724 2727 2730 2733 2736 2739 2741 2743 2745 2747 2749 2750 2751 2752 2753 2754 2755 2755 2756 2756 2756 2755 2755 2754 2753 2751 2749 2747 2745 2743 2741 2738 2736 2732